Regional Weather Roundup
Issued by NWS

Home | Current Version | Previous Version | Text Only | Print | Product List | Glossary On
Versions: 1 2 3 4 5 6 7 8 9 10 11 12 13 14 15 16 17 18 19 20 21 22 23 24 25 26 27 28 29 30 31 32 33 34 35 36 37 38 39 40 41 42 43 44 45 46 47 48 49 50
000
ASUS44 KLIX 281012
RWRLA
LOUISIANA WEATHER ROUNDUP
NATIONAL WEATHER SERVICE NEW ORLEANS LA
500 AM CDT SAT MAY 28 2016

NOTE: "FAIR" INDICATES FEW OR NO CLOUDS BELOW 12,000 FEET WITH NO
      SIGNIFICANT WEATHER AND/OR OBSTRUCTIONS TO VISIBILITY.
      SKY/WX - SKY CONDITION AND SIGNIFICANT WEATHER.
      TMP - AIR TEMPERATURE.    DP   - DEWPOINT TEMPERATURE.
      RH  - RELATIVE HUMIDITY.  PRES - PRESSURE.
      HX  - HEAT INDEX.         WCI  - WIND CHILL INDEX.

*  THESE STATIONS ARE NOT NWS OR FAA STATIONS AND ARE NOT UNDER
   NWS QUALITY CONTROL.

LAZ040-048-061>063-065-066-069-281100-
SOUTHEAST LOUISIANA

CITY           SKY/WX    TMP DP  RH WIND       PRES   REMARKS
N.O. AUDUBON     N/A     75  72  90 MISG        N/A
N.O. INTL ARPT CLOUDY    75  71  87 SE13      29.96F
N.O. LAKEFRONT CLEAR     76  69  79 S12       29.98S
N.O. DOWNTOWN* FAIR      76  71  85 S6        29.98S
RESERVE*       FAIR      75  71  89 S9        29.96S
SLIDELL        CLEAR     74  70  87 S6        29.97R
BATON ROUGE    MOCLDY    71  65  81 S12       29.93F
BOOTHVILLE     MOCLDY    74  69  85 SE3       29.99R
BELLE CHASSE   CLOUDY    75  71  87 S6        29.97S
BOGALUSA*      FAIR      73  69  87 S6        29.98S
GALLIANO*      PTSUNNY   67  66  96 CALM      29.97F FOG
NEW ROADS*     FAIR      70  65  86 S10       29.90F
GONZALES*      FAIR      71  68  90 S6        29.94F
HAMMOND*       PTCLDY    72  70  94 S6        29.95S
HOUMA*         MOCLDY    70  68  93 CALM      29.97F
PORT FOURCHON* SUNNY     79  70  73 SW5       29.97F

$$

LAZ041-044-053-054-281100-
SOUTHWEST LOUISIANA

CITY           SKY/WX    TMP DP  RH WIND       PRES   REMARKS
LAKE CHARLES   CLOUDY    69  65  86 E8        29.84S
LAFAYETTE      CLOUDY    70  65  84 S9        29.89F
PATTERSON      CLOUDY    71  67  87 SW8       29.95F
SALT POINT       N/A     75  65  70 VRB6      29.93F
NEW IBERIA     LGT RAIN  70  64  81 S10       29.92F
CHENAULT AIRPK NOT AVBL

$$

LAZ027-028-281100-
CENTRAL LOUISIANA

CITY           SKY/WX    TMP DP  RH WIND       PRES   REMARKS
FORT POLK      MOCLDY    65  64  95 N2        29.88R
ALEXANDRIA INT CLOUDY    67  65  93 NE3       29.87R
ALEXANDRIA     CLOUDY    67  65  93 CALM      29.89F

$$

LAZ001-002-281100-
NORTHWEST LOUISIANA

CITY           SKY/WX    TMP DP  RH WIND       PRES   REMARKS
SHREVEPORT     CLOUDY    65  64  97 SE3       29.88S
BARKSDALE AFB  CLOUDY    63  63 100 SE5       29.89R
DTN SHREVEPORT CLOUDY    65  63  93 SE3       29.89R

$$

LAZ014-016-281100-
NORTHEAST LOUISIANA

CITY           SKY/WX    TMP DP  RH WIND       PRES   REMARKS
MONROE         CLOUDY    66  66 100 E3        29.92F
TALLULAH       CLOUDY    68  65  90 E9        29.92S

$$




USA.gov is the U.S. government's official web portal to all federal, state and local government web resources and services.